Elmendorf AFB, AK

3:48 PM AKST on December 16, 2017 (GMT -0900)
Elmendorf Air Force Base

Weather History for PAED - February, 2014

Change the Weather History Date:

Tuesday, February 25, 2014

  Actual Average Record
Temperature  
Mean Temperature 18 °F -  
Max Temperature 26 °F 29 °F 44 °F (1993)
Min Temperature 10 °F 13 °F -18 °F (1971)
Degree Days  
Heating Degree Days 47    
Moisture  
Dew Point 5 °F    
Average Humidity 58    
Maximum Humidity 76    
Minimum Humidity 37    
Precipitation  
Precipitation 0.00 in - - ()
Snow  
Snow 0.00 in - - ()
Snow Depth 14.00 in    
Sea Level Pressure  
Sea Level Pressure 30.07 in    
Wind  
Wind Speed 5 mph (NE)    
Max Wind Speed 10 mph    
Max Gust Speed -    
Visibility 10 miles    
Events      
Averages and records for this station are not official NWS values.
T = Trace of Precipitation, MM = Missing Value Source: NWS Daily Summary

Daily Weather History Graph

Daily Weather History Graph

Search for Another Location

Airport or City:

Trip Planner

Search our weather history database for the weather conditions in past years. The results will help you decide how hot, cold, wet, or windy it might be!

Date:

Astronomy

Feb. 25, 2014 Rise Set
Actual Time 8:11 AM AKST 6:14 PM AKST
Civil Twilight 7:27 AM AKST 6:58 PM AKST
Nautical Twilight 6:37 AM AKST 7:48 PM AKST
Astronomical Twilight 5:47 AM AKST 8:38 PM AKST
Moon 6:05 AM AKST (2/25) 1:43 PM AKST (2/25)
Length of Visible Light 11h 30m
Length of Day
10h 02m
Waning Crescent, 17% of the Moon is Illuminated
Feb 25
Waning Crescent
Feb 28
New
Mar 8
First Quarter
Mar 16
Full
Mar 23
Last Quarter

Hourly Weather History & Observations

Time (AKST) Temp. Windchill Dew Point Humidity Pressure Visibility Wind Dir Wind Speed Gust Speed Precip Events Conditions
12:58 AM 17.1 °F 10.0 °F 8.8 °F 70% 30.15 in 10.0 mi NE 4.6 mph - N/A   Clear
1:58 AM 13.3 °F - 4.3 °F 67% 30.17 in 10.0 mi Calm Calm - N/A   Clear
2:58 AM 10.9 °F - 4.8 °F 76% 30.15 in 10.0 mi Calm Calm - N/A   Clear
3:58 AM 18.0 °F 8.7 °F 3.9 °F 54% 30.15 in 10.0 mi NNE 6.9 mph - N/A   Clear
4:58 AM 17.4 °F 7.1 °F 9.7 °F 72% 30.15 in 10.0 mi NNE 8.1 mph - N/A   Clear
5:58 AM 15.3 °F 6.6 °F 6.4 °F 68% 30.13 in 10.0 mi NE 5.8 mph - N/A   Clear
6:58 AM 14.4 °F 4.3 °F 4.3 °F 64% 30.13 in 10.0 mi NE 6.9 mph - N/A   Clear
7:58 AM 14.4 °F 4.3 °F 4.5 °F 65% 30.12 in 10.0 mi NNE 6.9 mph - N/A   Clear
8:58 AM 10.0 °F -0.9 °F 2.5 °F 72% 30.12 in 10.0 mi East 6.9 mph - N/A   Clear
9:58 AM 13.6 °F 4.6 °F 5.2 °F 69% 30.13 in 10.0 mi NNE 5.8 mph - N/A   Clear
10:58 AM 18.5 °F 8.4 °F 5.9 °F 58% 30.12 in 10.0 mi NNE 8.1 mph - N/A   Clear
11:58 AM 20.8 °F 11.2 °F 5.0 °F 50% 30.11 in 10.0 mi NE 8.1 mph - N/A   Clear
12:58 PM 23.2 °F 15.0 °F 4.3 °F 44% 30.10 in 10.0 mi NE 6.9 mph - N/A   Clear
1:58 PM 24.8 °F 16.9 °F 4.6 °F 42% 30.08 in 10.0 mi NNE 6.9 mph - N/A   Clear
2:58 PM 26.4 °F 17.3 °F 3.0 °F 37% 30.05 in 10.0 mi NNE 9.2 mph - N/A   Clear
3:58 PM 26.1 °F 19.4 °F 4.6 °F 40% 30.02 in 10.0 mi ENE 5.8 mph - N/A   Clear
4:58 PM 19.8 °F 14.7 °F 6.4 °F 56% 30.00 in 10.0 mi ENE 3.5 mph - N/A   Clear
5:58 PM 21.9 °F - 3.7 °F 46% 29.99 in 10.0 mi Calm Calm - N/A   Clear
6:58 PM 15.3 °F - 2.1 °F 56% 29.99 in 10.0 mi Calm Calm - N/A   Clear
7:58 PM 14.0 °F 6.5 °F 3.2 °F 62% 29.99 in 10.0 mi ENE 4.6 mph - N/A   Clear
8:58 PM 14.0 °F - 1.8 °F 58% 29.99 in 10.0 mi Calm Calm - N/A   Clear
9:58 PM 12.0 °F 2.7 °F 3.0 °F 67% 29.98 in 10.0 mi NNE 5.8 mph - N/A   Clear
10:58 PM 23.2 °F 12.6 °F 5.4 °F 47% 29.95 in 10.0 mi NNE 10.4 mph - N/A   Clear
11:58 PM 21.7 °F 10.8 °F 7.3 °F 54% 29.95 in 10.0 mi North 10.4 mph - N/A   Overcast